Theta_e
292 296 296 296 296 295 292 292 288 291 292 300 301 301 301 303 305 309 312 315 316 324 325 326 327 328 329 326 324 323 322 319 320 319 319 318 317 315 316 315 315 315 314 312
292 297 295 293 296 296 295 296 296 298 294 302 304 303 302 303 304 306 308 311 317 324 324 324 326 326 326 325 324 323 321 320 319 318 319 319 318 317 315 315 314 314 312 311
286 294 292 288 293 294 297 298 299 294 299 303 302 302 302 303 304 305 307 310 312 316 322 322 323 324 323 323 323 322 321 321 320 319 319 319 319 316 315 315 313 310 310 309
286 288 281 292 298 299 299 299 298 302 305 305 303 304 305 306 305 305 306 310 312 313 320 322 320 321 323 324 323 322 321 321 321 321 321 321 318 315 314 312 309 310 306 304
284 283 288 292 296 296 295 295 299 299 303 304 303 307 303 306 307 307 307 308 312 313 319 320 320 319 320 321 322 321 321 322 323 322 321 319 317 315 311 309 307 305 302 298
285 282 281 290 297 302 300 290 299 299 298 299 300 294 297 304 305 305 304 306 307 309 317 318 321 320 319 319 319 320 322 323 324 323 321 317 314 311 308 307 305 300 297 297
283 283 287 295 299 302 288 289 300 299 298 297 295 298 300 302 303 304 303 306 307 308 308 316 318 320 318 317 320 322 323 322 319 319 316 313 309 308 305 304 299 296 295 295
284 282 283 298 298 294 296 298 300 300 299 298 299 299 300 302 302 303 302 304 306 306 307 314 315 317 319 316 321 323 319 313 313 311 311 308 305 304 304 301 296 294 295 294
289 288 294 297 296 299 298 296 298 297 300 300 299 300 301 300 302 302 302 302 305 307 308 309 311 313 316 319 321 320 313 310 309 305 304 303 304 303 297 297 295 295 294 293
289 291 293 295 297 299 298 297 298 298 298 298 297 299 300 300 301 301 302 302 305 306 306 307 311 314 317 317 320 316 313 311 308 302 297 297 298 297 295 294 294 294 293 291
287 291 291 292 296 298 298 297 297 297 298 298 298 298 299 300 300 301 302 302 303 304 305 307 311 315 316 318 318 315 311 311 306 299 296 293 293 294 294 293 293 292 291 291
286 291 289 291 294 297 295 296 296 296 297 298 297 297 299 299 300 300 300 302 302 304 306 308 312 315 317 317 315 312 311 310 304 299 296 294 293 292 292 292 292 291 291 292
289 292 293 295 295 296 295 296 297 297 297 296 298 299 299 298 299 300 302 302 303 304 306 311 314 316 316 316 316 313 310 306 303 297 295 293 293 293 292 292 292 291 291 291
293 293 291 294 293 297 297 298 299 298 298 298 299 300 300 299 301 302 304 306 307 307 311 313 313 314 315 315 313 308 304 300 301 297 295 294 294 293 294 293 291 292 292 291
294 295 294 296 296 298 299 298 298 299 300 300 301 300 301 302 303 305 308 309 311 312 312 313 312 312 314 313 309 303 301 301 298 297 295 295 295 294 293 292 292 292 292 292
295 297 300 300 301 301 301 301 300 301 302 302 302 303 304 305 306 307 308 308 307 308 310 311 311 312 314 310 307 303 301 297 296 298 296 296 295 293 292 291 292 292 291 290
297 297 299 299 300 300 301 302 302 302 303 303 303 305 305 305 306 305 306 306 306 307 308 310 310 313 313 306 302 301 300 298 291 296 295 295 293 292 292 292 292 292 291 290
300 300 301 300 300 302 303 304 304 305 304 305 305 305 305 304 304 305 305 305 305 307 308 310 312 312 311 303 303 302 299 298 297 295 295 294 293 293 293 293 292 291 292 291
301 301 302 303 305 305 304 305 305 306 306 306 306 305 305 304 304 304 304 304 305 305 307 311 303 308 303 300 302 300 298 297 296 295 294 290 293 293 293 293 292 292 291 291
301 302 304 305 306 306 305 304 303 302 302 302 303 304 304 305 304 304 304 305 306 309 309 308 306 302 301 300 297 299 298 297 295 294 294 293 293 293 293 290 292 291 291 290
301 302 304 304 304 304 303 302 301 300 301 302 301 301 304 306 305 305 306 306 307 307 308 299 300 301 301 299 300 299 298 296 295 294 294 293 293 293 293 292 291 291 290 290
302 304 304 304 302 301 301 301 300 300 300 302 301 302 305 305 306 307 308 306 304 292 299 301 301 294 296 294 300 298 297 296 295 294 294 294 294 293 293 292 291 291 290 290
304 305 304 302 301 300 300 300 299 299 302 302 302 304 306 306 305 303 299 298 299 293 299 298 290 289 291 300 299 298 297 296 295 295 295 296 295 294 293 291 291 291 290 290
304 305 303 302 301 299 297 298 299 299 300 303 304 303 301 298 296 296 295 291 290 295 297 296 293 290 293 299 298 297 296 296 295 296 297 292 295 294 293 292 291 291 291 290
305 303 301 300 298 297 298 299 298 298 298 297 297 297 298 299 296 296 296 295 290 295 296 289 289 291 299 298 297 296 296 295 296 296 297 296 295 294 293 292 291 291 290 290
304 302 300 299 298 298 298 299 297 297 297 296 297 298 299 299 299 298 298 296 298 294 298 299 298 298 297 297 296 296 295 295 297 297 296 295 294 294 293 292 291 290 290 290
302 297 298 298 299 298 298 297 297 297 297 297 296 298 298 298 297 298 295 298 298 297 297 297 297 295 296 296 295 295 295 296 293 296 295 294 293 293 293 292 291 290 290 290
Wind_Speed
3 4 2 3 7 4 7 8 5 5 3 4 6 7 8 7 11 14 16 17 16 17 17 18 13 6 4 3 3 2 4 3 7 6 5 5 5 6 6 4 3 3 2 0
3 3 3 4 9 9 7 0 3 3 3 2 3 4 8 9 11 13 14 16 17 17 17 17 14 9 7 5 8 7 5 5 7 4 2 2 4 5 5 4 2 1 3 2
4 4 6 7 5 2 5 3 2 2 4 5 2 5 5 6 6 6 8 10 14 17 15 14 13 8 6 5 4 6 3 5 4 5 4 4 3 3 3 2 1 4 3 5
4 3 3 6 4 2 9 2 3 2 2 5 5 4 3 4 5 7 7 7 7 9 12 13 11 7 5 4 4 4 2 3 4 5 2 2 3 2 1 3 4 3 5 6
2 2 6 6 3 3 2 2 2 2 3 4 5 1 5 2 4 5 6 7 6 5 6 7 8 8 6 4 6 1 3 2 3 3 3 3 3 2 2 4 4 5 5 7
2 2 4 4 7 7 0 1 2 2 2 2 3 2 5 7 7 9 7 5 8 7 5 7 10 10 10 7 6 5 1 3 3 3 3 3 3 5 3 4 4 6 7 6
2 4 7 6 9 5 1 4 3 4 4 5 2 5 7 9 8 6 7 10 10 7 4 6 9 5 9 6 5 3 2 1 2 3 4 5 4 3 3 5 7 6 7 5
2 2 6 5 5 4 4 3 4 4 5 5 7 8 8 11 11 12 11 10 10 8 8 6 8 8 11 9 5 2 2 3 4 5 5 5 6 3 5 6 7 6 5 4
7 6 4 3 1 1 2 2 4 4 7 5 8 9 11 10 11 11 10 9 8 7 10 6 8 7 11 10 5 2 5 4 6 8 7 5 4 5 6 7 6 5 4 5
2 3 4 5 5 5 2 2 5 6 9 7 10 10 11 11 11 12 12 10 7 8 11 12 9 10 9 5 5 4 3 5 5 6 7 7 6 6 7 6 5 6 6 5
5 7 6 5 4 6 7 8 11 12 12 14 15 15 14 13 11 14 12 11 7 9 9 11 8 10 5 4 2 3 6 4 6 6 6 7 9 6 7 7 5 5 4 4
6 7 6 9 7 8 10 12 13 12 11 13 10 13 13 11 13 10 11 12 10 9 7 9 7 7 4 2 4 7 6 5 5 5 3 5 8 9 12 11 11 11 9 7
5 2 6 13 11 9 9 12 12 9 11 11 14 11 11 7 8 8 9 10 9 9 8 5 5 5 2 2 2 5 6 7 5 6 4 6 5 6 6 3 6 7 7 9
7 3 7 4 8 12 12 15 12 11 11 11 13 11 10 8 7 6 7 8 7 6 5 3 4 3 2 2 5 8 7 7 6 4 5 4 4 5 4 4 5 6 5 6
7 4 9 11 12 12 9 9 11 11 11 11 9 9 8 9 8 7 6 6 5 6 5 4 2 2 0 1 6 8 7 7 7 5 6 5 5 5 5 6 6 5 5 5
13 12 12 9 13 13 12 11 12 13 12 11 11 10 10 9 8 7 6 5 4 6 6 4 3 3 3 5 5 6 7 13 7 7 7 5 5 5 5 6 5 5 4 4
8 12 15 16 15 16 16 15 14 14 15 14 14 13 10 10 10 7 7 6 5 7 6 5 6 6 5 5 7 7 8 7 8 7 6 6 5 5 5 5 5 5 4 4
8 11 12 14 16 16 16 15 15 16 15 16 15 13 11 8 11 11 7 6 5 7 5 5 8 7 6 7 9 9 8 8 7 7 6 6 5 5 5 6 6 5 3 3
12 13 15 16 16 16 16 15 16 16 15 16 16 13 12 11 10 9 6 4 6 5 3 5 11 8 8 10 11 8 9 10 8 7 7 7 6 6 6 6 5 5 3 3
14 13 15 18 18 16 14 14 17 17 17 15 15 14 11 11 9 7 4 6 5 3 6 9 9 8 8 9 12 9 10 9 9 7 7 7 6 6 5 6 5 5 3 4
15 14 16 16 13 13 13 15 17 18 19 17 14 12 11 9 5 5 4 3 2 7 10 10 8 7 8 10 11 9 9 9 8 7 7 6 7 6 5 6 5 4 3 3
13 12 14 13 12 13 14 15 17 19 19 12 11 9 8 5 4 4 2 4 5 7 7 7 7 10 10 11 9 9 10 10 7 6 6 6 6 6 6 5 5 4 3 3
11 11 10 11 12 12 13 14 16 18 8 6 3 3 4 4 5 7 7 6 7 10 8 9 10 12 12 10 8 10 10 9 7 6 6 5 6 6 6 5 5 4 4 4
11 8 8 8 8 10 13 14 14 13 13 14 11 10 9 8 9 8 11 12 10 14 9 8 11 13 12 8 9 9 8 8 7 6 5 6 6 6 6 6 5 5 4 4
9 5 7 8 8 8 11 12 10 12 13 15 15 14 14 9 9 7 11 10 13 14 10 8 12 12 9 9 9 8 8 7 6 5 6 6 6 6 6 6 6 5 4 4
4 5 5 7 7 7 7 7 8 8 9 12 11 10 11 11 11 11 11 12 11 10 9 8 8 9 9 9 9 9 7 6 6 6 8 7 7 6 7 7 6 5 4 4
6 6 5 6 6 7 7 8 9 10 10 11 13 12 13 11 11 11 11 10 10 10 9 9 9 9 9 8 8 8 7 7 7 7 7 6 6 6 7 7 6 5 4 5
Wind_Direction
274 239 242 251 261 211 207 227 185 258 324 0 348 340 335 332 6 14 11 7 2 1 356 354 355 16 65 166 193 62 27 214 90 107 163 154 148 164 169 182 191 205 195 230
291 315 359 272 256 252 238 221 289 341 93 265 268 288 13 2 7 12 8 5 359 358 354 357 357 354 344 345 340 11 12 20 83 109 130 192 157 169 137 167 182 145 56 24
261 345 332 309 277 334 99 38 221 213 222 233 257 46 354 341 345 355 356 358 4 357 346 341 347 346 351 347 342 351 34 109 119 150 174 188 159 118 133 159 79 62 47 45
243 346 223 245 306 159 119 125 333 294 282 282 277 214 277 316 311 335 339 336 356 351 339 334 331 346 337 343 334 317 282 140 153 148 179 160 122 135 103 72 63 61 48 59
187 211 292 330 68 82 302 269 302 230 344 305 315 122 270 308 327 307 306 289 288 306 297 307 323 331 328 9 318 250 211 172 203 147 167 140 141 127 79 76 61 59 58 83
119 183 229 240 322 310 65 302 296 166 133 12 23 23 277 311 316 303 304 298 324 319 309 339 342 342 332 1 315 313 282 233 243 148 157 109 111 89 72 76 86 90 87 74
161 236 285 300 305 285 208 252 339 331 322 344 342 218 265 301 306 301 295 310 316 315 316 319 317 345 310 310 280 300 275 138 89 138 134 124 102 79 101 96 89 95 91 63
121 226 280 323 359 23 223 296 288 308 291 292 281 293 288 292 292 293 299 298 306 316 305 303 303 327 300 287 279 253 140 129 126 88 67 71 87 77 65 97 104 93 77 44
177 227 244 299 173 131 177 261 322 326 310 293 290 286 292 286 296 291 283 295 298 293 305 308 313 304 284 273 299 214 143 102 73 76 68 48 68 85 81 79 84 73 48 24
43 276 231 253 276 264 257 279 292 285 270 273 271 274 274 284 291 302 303 302 291 307 305 305 305 310 277 288 283 134 104 93 104 83 61 58 71 71 78 80 72 53 33 17
254 292 313 263 240 254 290 281 298 296 281 285 290 291 286 284 289 291 290 293 288 284 284 285 306 300 304 288 185 125 119 96 80 78 86 83 68 61 82 60 68 69 44 31
251 266 228 271 275 278 280 277 277 274 279 276 269 269 275 277 278 276 287 291 285 280 277 283 301 305 314 266 171 136 116 84 88 77 104 104 104 95 61 86 81 79 67 44
257 298 221 269 271 268 278 268 267 266 264 263 274 269 269 258 268 277 287 281 278 276 284 301 320 315 52 147 161 113 93 100 110 111 136 121 126 118 117 80 69 61 51 43
249 262 299 250 273 299 291 284 283 272 266 269 266 273 264 256 275 269 278 285 299 294 291 325 311 292 136 137 95 83 92 88 107 134 119 129 121 106 95 84 70 44 48 36
304 229 239 266 285 274 264 275 283 285 287 284 278 259 266 266 266 269 280 298 321 320 335 325 284 243 216 57 98 103 98 85 92 116 113 109 101 87 82 84 75 59 28 12
304 304 302 292 297 294 287 283 280 289 288 278 269 273 267 261 263 256 269 295 318 300 303 285 237 198 174 100 91 86 82 93 103 109 103 99 85 88 88 79 68 52 42 3
301 312 311 304 303 302 297 292 281 280 283 277 271 270 260 267 265 255 266 279 272 266 268 232 202 171 139 114 121 110 103 97 89 94 95 89 90 89 82 76 61 54 49 22
266 274 279 279 289 292 293 292 287 283 280 278 274 269 259 247 253 259 258 275 287 275 261 219 167 143 118 122 118 110 111 105 104 101 98 93 90 82 75 66 58 49 36 26
295 291 295 290 291 292 292 292 292 293 292 290 276 255 256 254 248 245 248 255 261 263 264 170 125 113 119 126 115 111 111 105 100 92 93 91 79 70 61 59 57 54 31 35
304 301 301 303 302 300 303 298 296 291 284 279 280 272 249 250 231 231 218 243 237 207 136 127 108 113 118 116 107 109 104 105 99 94 86 80 74 67 54 63 57 56 40 39
311 306 309 321 318 314 311 304 300 294 288 270 246 253 259 235 193 193 195 188 148 138 119 101 113 112 114 118 107 104 107 102 102 98 89 84 75 68 58 63 62 55 41 33
309 310 318 320 323 317 317 314 311 309 306 289 191 214 239 174 171 152 108 137 113 96 94 108 109 102 110 102 102 108 104 104 107 100 90 76 64 62 61 58 60 52 44 31
306 315 326 330 332 327 326 331 334 334 359 34 114 171 121 99 114 121 100 34 90 80 82 95 102 101 94 96 106 102 101 109 105 96 86 72 61 59 60 53 55 54 45 30
318 327 331 336 345 340 351 347 349 359 31 39 64 86 97 87 57 62 88 78 77 86 90 105 98 89 93 100 95 98 103 99 94 92 84 75 66 64 63 59 52 47 41 37
315 339 355 4 359 359 358 355 5 19 43 53 53 56 64 58 88 90 85 91 86 83 82 64 75 79 88 91 96 97 90 91 92 88 80 71 61 66 62 60 55 37 34 37
15 17 26 17 15 9 2 7 31 34 53 67 59 61 72 73 73 79 77 76 80 77 72 70 77 80 82 85 87 89 89 82 75 70 78 70 60 54 58 52 47 53 38 32
50 39 30 22 30 26 28 36 43 44 51 62 70 58 59 57 57 69 75 76 76 75 73 70 70 73 81 80 79 75 73 67 63 78 74 68 61 58 58 51 39 33 33 35